STARLINK-1281, 45370

Orbit data source: Space-Track

STARLINK-1281, 45370 is a payload satellite owned by SpaceX/Seattle (US) in LEO that was launched on Wed, 18 Mar 2020 UTC via an FALCON 9 launch vehicle from the Air Force Eastern Test Range (AFETR). Payload-class satellites include a variety of spacecraft equipped with specific instruments for various scientific and technological missions. These include communications satellites like Starlink; space stations such as the ISS; scientific satellites like the Hubble; Earth observation satellites from companies like Planet Labs, Umbra, and HawkEye 360; GPS; miniature CubeSats for education and research; and military/defense satellites.

Loading next visibility...
Identifier
45370, 2020-019L
Orbit
LEO
Country
Flag of USUS
Related business
Manufacturer
SpaceX/Seattle
Mission
Operational Commercial Communications
Bus & Motor
STARLINK, Unknown motor
Mass
260 kg wet, ~248 kg dry
Launch date (UTC)
2020-03-18 (6 years ago)
Launch vehicle
FALCON 9
Launch site
Air Force Eastern Test Range (AFETR)
Object type
Payload
Rocket body
Debris
Shape & HBR
Box + 1 Pan, 10.1 m
Radar Cross Section
13.562 m², Large (>1 m²)

Expand to show TLE details & history
Last TLE update: 14 hours ago

TLE from 14 hours ago
0 STARLINK-1281
1 45370U 20019L   25288.97101237  .00000785  00000-0  71579-4 0  9999
2 45370  53.0541  96.2859 0001269  90.3898 269.7236 15.06400634307928
Epoch: 2025-10-15T23:18Z
TLE epoch observation values (Epoch: 2025-10-15T23:18:15.468Z)
Latitude
-0.00007°
Longitude
81.98396°
Altitude
548.093 km
Speed
7.589 km/s
True Right ascension
06h 25m 08s
True Declination
0° 00' 00"
Sunlit
Object was in daylight at epoch
Visualization orbit readout
Latitude
Unknown
Longitude
Unknown
Altitude
Unknown
Speed
Unknown
Apparent Right ascension
Unknown
Apparent Declination
Unknown
Sunlit
N/A
Visualization observer readout
Local Sidereal Time
07:42:37
Azimuth
Unknown
Elevation
Unknown
Doppler factor
Unknown
Orbital elements
Apogee altitude
548.359 km
Perigee altitude
546.602 km
Semi-major axis
6,925.617 km
Eccentricity
0.00013
Inclination
53.0541°
RAAN
96.2859°
Arg. of periapsis
90.3898°
True anomaly
269.70906°
Mean anomaly
269.7236°
Eccentric anomaly
269.71633°
Mean motion
3.76578 °/min
Orbital period
95.6 mins
BSTAR
0.000071579
Loading maneuver chart data...
Computing Atmospheric mass density...

Documentation

Showing up to 5 results
|